Gurwin Techsat 1B - Orbit

View from above orbital plane
View from above orbital plane
View from above satellite
View from above satellite

Ground track
Ground track

The orbit data is extracted from the following two-line orbital elements,

1 25397U 98043D   13168.48812350  .00000010  00000-0  22520-4 0   986
2 25397 098.4141 136.2329 0000341 015.7713 131.7549 14.23345117775980
Epoch (UTC): 17 June 2013 11:42:53
Eccentricity: 0.0000341
inclination: 98.4141°
perigee height: 814 km
apogee height: 814 km
right ascension of ascending node: 136.2329°
argument of perigee: 15.7713°
revolutions per day: 14.23345117
mean anomaly at epoch: 131.7549°
orbit number at epoch: 77598

The dashed part of the orbit path shows where the satellite is in the earth's shadow,  

Developed and maintained by Chris Peat, Heavens-Above GmbH. Please read the updated FAQ before sending e-mail. Imprint. DLR